[[[{"header":{"parameterUnit":"kt","parameterCategory":2,"dx":1,"dy":1,"la1":30.253999710083008,"la2":30.299108505249023,"lo1":-89.0895004272461,"lo2":-89.04439544677734,"nx":28,"ny":28,"refTime":"2022-10-03T21:00:00:Z","depth":0,"parameterNumber":1,"parameterNumberName":"U-component_of_WINDS"},"data":[-3.639,-3.6552,-3.6574,-3.677,-3.6823,-3.6962,-3.7019,-3.7096,-3.7162,-3.7333,-3.7436,-3.7476,-3.7554,-3.7684,-3.7799,-3.7815,-3.7862,-3.7905,-3.7917,-3.7704,-3.7677,-3.765,-3.7611,-3.7915,-3.7915,-3.8133,-3.8135,-3.8137,-3.6237,-3.629,-3.64,-3.652,-3.6615,-3.6588,-3.6683,-3.6764,-3.689,-3.6974,-3.7075,-3.7228,-3.7352,-3.7417,-3.7541,-3.7621,-3.7616,-3.7653,-3.7648,-3.7661,-3.7435,-3.7394,-3.7656,-3.7656,-3.7655,-3.7655,-3.7655,-3.7655,-3.5964,-3.606,-3.6144,-3.6263,-3.633,-3.6411,-3.6508,-3.6553,-3.6662,-3.6791,-3.6796,-3.694,-3.7029,-3.7189,-3.7249,-3.7364,-3.7327,-3.7375,-3.7387,-3.7399,-3.741,-3.7094,-3.7386,-3.7385,-3.7385,-3.7384,-3.7384,0,-3.577,-3.5781,-3.5886,-3.5999,-3.6087,-3.6176,-3.6262,-3.6323,-3.6354,-3.6443,-3.6574,-3.6653,-3.6812,-3.6939,-3.706,-3.7113,-3.7095,-3.7095,-3.7129,-3.7128,-3.7113,-3.7124,-3.6755,-3.7086,-3.7084,-3.7082,-3.7081,-3.708,-3.5497,-3.5606,-3.5703,-3.5775,-3.5826,-3.5941,-3.6015,-3.6033,-3.6111,-3.6221,-3.6306,-3.6433,-3.6535,-3.6744,-3.6798,-3.6917,-3.691,-3.7034,-3.6927,-3.6923,-3.6913,-3.6907,-3.6919,-3.7054,-3.7057,-3.706,-3.7062,0,-3.5342,-3.5373,-3.5549,-3.5634,-3.5659,-3.5773,-3.5848,-3.5945,-3.5978,-3.6118,-3.6151,-3.6204,-3.6333,-3.6366,-3.6521,-3.6535,-3.673,-3.6719,-3.67,-3.6699,-3.6815,-3.6804,-3.7181,-3.7232,-3.6918,-3.6921,-3.6923,0,-3.5121,-3.5263,-3.5302,-3.5402,-3.5562,-3.5575,-3.5734,-3.5776,-3.585,-3.596,-3.5942,-3.6046,-3.6072,-3.6182,-3.6203,-3.6367,-3.6396,-3.6417,-3.6421,-3.6419,-3.6416,-3.6461,-3.6446,-3.6423,-3.6421,-3.6419,-3.6418,0,-3.4874,-3.5061,-3.5223,-3.527,-3.5375,-3.5452,-3.55,-3.5581,-3.5653,-3.5752,-3.5799,-3.5914,-3.5977,-3.6068,-3.6092,-3.6019,-3.6294,-3.6198,-3.6315,-3.6315,-3.6374,-3.637,-3.6696,-3.6415,-3.6415,-3.6414,-3.6414,0,-3.47,-3.4796,-3.5025,-3.5112,-3.516,-3.5268,-3.5379,-3.5478,-3.5566,-3.5584,-3.5662,-3.5653,-3.5798,-3.5701,-3.5902,-3.58,-3.5864,-3.5897,-3.5906,-3.592,-3.5811,-3.5991,-3.6297,-3.6331,-3.5936,-3.5932,-3.5928,0,-3.441,-3.4648,-3.4659,-3.4878,-3.4992,-3.4962,-3.5082,-3.5159,-3.5193,-3.5297,-3.5335,-3.5454,-3.5388,-3.543,-3.5525,-3.557,-3.5703,-3.5553,-3.5708,-3.5713,-3.5685,-3.5967,-3.6004,-3.6226,-3.5878,-3.5883,-3.5887,0,-3.4188,-3.4309,-3.4347,-3.4402,-3.4502,-3.4597,-3.4735,-3.4854,-3.4922,-3.501,-3.5127,-3.5294,-3.5252,-3.532,-3.5325,-3.5422,-3.5614,-3.5363,-3.5366,-3.5408,-3.5854,-3.5889,-3.5926,-3.5596,-3.5602,-3.5607,-3.5846,0,-3.3919,-3.4041,-3.4144,-3.4263,-3.4341,-3.4478,-3.4507,-3.4586,-3.4581,-3.4612,-3.4784,-3.4855,-3.4977,-3.5027,-3.5023,-3.5235,-3.5204,-3.5157,-3.5064,-3.5249,-3.5329,-3.5361,-3.4943,-3.4941,-3.4939,-3.4937,0,0,-3.3634,-3.3808,-3.3813,-3.3944,-3.401,-3.3975,-3.4119,-3.418,-3.4303,-3.4351,-3.4299,-3.4545,-3.4604,-3.481,-3.487,-3.492,-3.4961,-3.4894,-3.5161,-3.5186,-3.5209,-3.5293,-3.5327,-3.4933,-3.4932,-3.4931,-3.4931,0,-3.3541,-3.3597,-3.3737,-3.38,-3.3891,-3.3916,-3.395,-3.4035,-3.4061,-3.4227,-3.4197,-3.4304,-3.4499,-3.4566,-3.4626,-3.487,-3.4842,-3.4906,-3.5027,-3.5138,-3.5166,-3.519,-3.5279,-3.531,-3.4926,-3.4926,-3.4926,0,-3.3327,-3.3388,-3.3457,-3.3602,-3.3662,-3.378,-3.3689,-3.3817,-3.3905,-3.386,-3.4026,-3.407,-3.4162,-3.4352,-3.4438,-3.4393,-3.4732,-3.463,-3.4644,-3.4654,-3.4764,-3.4797,-3.4826,-3.4437,-3.4435,-3.4433,0,0,-3.3243,-3.3354,-3.3424,-3.3584,-3.3624,-3.3662,-3.3726,-3.3727,-3.3808,-3.384,-3.3894,-3.3976,-3.409,-3.4164,-3.4272,-3.4476,-3.4497,-3.4568,-3.4591,-3.461,-3.463,-3.4744,-3.4777,-3.4426,-3.4426,-3.4426,0,0,-3.3203,-3.3288,-3.3267,-3.3456,-3.3533,-3.3613,-3.3711,-3.3688,-3.3787,-3.3774,-3.3783,-3.3805,-3.3982,-3.4026,-3.393,-3.424,-3.4147,-3.4171,-3.4204,-3.4234,-3.4256,-3.4242,-3.3847,0,0,0,0,0,-3.312,-3.3277,-3.3257,-3.3292,-3.3475,-3.3624,-3.3648,-3.3656,-3.3591,-3.3669,-3.371,-3.3674,-3.3976,-3.3891,-3.3928,-3.4035,-3.4337,-3.4353,-3.4368,-3.4459,-3.4489,-3.4515,0,0,0,0,0,0,-3.3134,-3.3177,-3.3253,-3.3339,-3.338,-3.3618,-3.3509,-3.3516,-3.3583,-3.3573,-3.3667,-3.3677,-3.3689,-3.3873,-3.3906,-3.4007,-3.3836,-3.4343,-3.4356,-3.4369,-3.4469,-3.4494,-3.4516,0,0,0,0,0,-3.3145,-3.318,-3.347,-3.3337,-3.3372,-3.3422,-3.3503,-3.3508,-3.356,-3.3623,-3.3632,-3.356,-3.3692,-3.372,-3.3893,-3.3992,-3.3813,-3.3825,-3.4352,-3.4362,-3.4372,-3.4481,0,0,0,0,0,0,-3.3153,-3.3186,-3.3477,-3.3489,-3.3276,-3.3409,-3.3429,-3.3501,-3.3606,-3.3616,-3.3516,-3.3507,-3.3696,-3.3717,-3.3739,-3.3986,-3.3795,-3.3807,-3.3815,-3.436,-3.4368,-3.4376,0,0,0,0,0,0,-3.3168,-3.3196,-3.3483,-3.3407,-3.3409,-3.3397,-3.3415,-3.3563,-3.3608,-3.3492,-3.3488,-3.3511,-3.3663,-3.3716,-3.3732,-3.3963,-3.378,-3.3792,-3.3801,-3.3806,-3.4367,-3.4373,0,0,0,0,0,0,-3.318,-3.3205,-3.3404,-3.3406,-3.3408,-3.3536,-3.3527,-3.3715,-3.354,-3.3488,-3.3524,-3.3517,-3.3663,-3.368,-3.3728,-3.3952,-3.396,-3.3781,-3.3789,-3.3795,-3.3798,0,0,0,0,0,0,0,-3.319,-3.3022,-3.341,-3.3405,-3.3407,-3.3593,-3.3597,-3.36,-3.3538,-3.3532,-3.3526,-3.352,-3.3712,-3.3725,-3.3739,-3.3942,0,0,-3.378,-3.3785,0,0,0,0,0,0,0,0,-3.3012,-3.302,-3.341,-3.3412,-3.3415,-3.3594,-3.3596,-3.3599,-3.3537,-3.3532,-3.3527,-3.3523,-3.3716,-3.3726,-3.3737,0,0,0,0,0,0,0,0,0,0,0,0,0,0,0,-3.341,-3.3412,0,-3.3594,-3.3596,-3.3598,-3.3536,-3.3532,-3.3528,-3.3524,-3.3719,-3.3727,-3.3736,0,0,0,0,0,0,0,0,0,0,0,0,0,0,0,0,0,0,0,0,0,0,0,0,0,0,0,0,0,0,0,0,0,0,0,0,0,0,0,0,0,0,0,0,0,0,0,0,0,0,0,0,0,0,0,0,0,0,0,0,0,0,0,0,0,0,0,0,0]}],[{"header":{"parameterUnit":"kt","parameterCategory":2,"dx":1,"dy":1,"la1":30.253999710083008,"la2":30.299108505249023,"lo1":-89.0895004272461,"lo2":-89.04439544677734,"nx":28,"ny":28,"refTime":"2022-10-03T21:00:00:Z","depth":0,"parameterNumber":2,"parameterNumberName":"V-component_of_WINDS"},"data":[2.0121,2.0044,1.9986,1.9868,1.9794,1.9702,1.9649,1.9573,1.9497,1.9375,1.9293,1.922,1.9114,1.8997,1.8901,1.8869,1.8832,1.8851,1.8809,1.8787,1.8779,1.8772,1.8788,1.8844,1.8844,1.884,1.8841,1.8841,2.0117,2.0045,1.9966,1.9848,1.9778,1.9726,1.9625,1.9569,1.9485,1.9389,1.9304,1.919,1.9089,1.8972,1.8862,1.8819,1.8784,1.8793,1.8794,1.8777,1.8752,1.877,1.8824,1.8824,1.8824,1.8824,1.8824,1.8824,2.0092,2.0048,1.9942,1.9853,1.9777,1.9697,1.9641,1.9554,1.9471,1.9353,1.9292,1.9193,1.908,1.8913,1.884,1.8757,1.8734,1.8721,1.8717,1.8716,1.8724,1.874,1.8735,1.8734,1.8734,1.8734,1.8733,0,2.0054,2.0008,1.9926,1.9828,1.9759,1.9674,1.9584,1.9548,1.9419,1.9355,1.9255,1.9186,1.9047,1.8942,1.8822,1.8745,1.8675,1.866,1.8651,1.868,1.8724,1.8699,1.866,1.8659,1.8658,1.8658,1.8657,1.8657,2.0024,1.9978,1.9836,1.9786,1.9722,1.9642,1.9581,1.9471,1.941,1.9279,1.9241,1.9136,1.9045,1.8889,1.8777,1.867,1.8634,1.8641,1.8616,1.8648,1.8632,1.8636,1.863,1.8647,1.8648,1.8649,1.865,0,2.0013,1.9912,1.982,1.968,1.9643,1.9599,1.9476,1.9423,1.9341,1.9255,1.9228,1.9096,1.8996,1.8882,1.8741,1.8684,1.8603,1.8571,1.8643,1.863,1.8625,1.8626,1.8626,1.862,1.8561,1.8562,1.8563,0,1.9946,1.9888,1.9741,1.9692,1.9623,1.9514,1.9447,1.9369,1.927,1.9201,1.9107,1.9043,1.8906,1.8825,1.874,1.8653,1.8626,1.8576,1.8553,1.8583,1.8589,1.8543,1.854,1.8505,1.8505,1.8505,1.8505,0,1.9937,1.9788,1.971,1.9658,1.95,1.9464,1.9395,1.9281,1.922,1.9121,1.9079,1.897,1.8909,1.8824,1.8717,1.8704,1.8607,1.8567,1.8555,1.8558,1.8536,1.8539,1.8571,1.8505,1.8505,1.8505,1.8505,0,1.9865,1.9774,1.9674,1.954,1.9504,1.945,1.9338,1.9265,1.9151,1.9096,1.9015,1.8936,1.8851,1.882,1.87,1.8715,1.866,1.8603,1.86,1.8583,1.8551,1.8582,1.8626,1.8626,1.8572,1.8572,1.8573,0,1.9884,1.9755,1.966,1.9565,1.9489,1.939,1.9326,1.9228,1.9149,1.9069,1.8978,1.8885,1.8838,1.8792,1.8748,1.8648,1.8629,1.8648,1.8526,1.8524,1.8561,1.8601,1.8635,1.8631,1.8578,1.8578,1.8577,0,1.9884,1.9693,1.9683,1.9619,1.9474,1.9408,1.9336,1.9222,1.9175,1.9073,1.9006,1.8873,1.8831,1.8756,1.8677,1.8637,1.8639,1.8596,1.8591,1.8607,1.8571,1.8605,1.8605,1.8594,1.8593,1.8593,1.8581,0,1.9799,1.972,1.9688,1.955,1.9481,1.9414,1.9295,1.9238,1.9172,1.9088,1.8987,1.887,1.8747,1.8715,1.8647,1.8593,1.8583,1.8538,1.8495,1.8523,1.8516,1.8513,1.8517,1.8515,1.8513,1.8512,0,0,1.984,1.9724,1.9619,1.9546,1.9481,1.9376,1.9315,1.9237,1.9083,1.9039,1.9017,1.8811,1.8714,1.8602,1.8602,1.8551,1.8529,1.8523,1.8511,1.8512,1.8512,1.8507,1.8506,1.8509,1.8508,1.8508,1.8507,0,1.9784,1.97,1.9642,1.956,1.9434,1.9348,1.9335,1.9188,1.913,1.9031,1.8939,1.8862,1.8698,1.8609,1.8542,1.8535,1.8466,1.8507,1.8545,1.8499,1.8502,1.8504,1.85,1.8501,1.8503,1.8503,1.8503,0,1.9763,1.9659,1.9619,1.9468,1.9382,1.9304,1.9234,1.9153,1.9093,1.8972,1.8873,1.8791,1.8659,1.857,1.8524,1.85,1.8417,1.842,1.8427,1.8417,1.8366,1.837,1.8373,1.8331,1.8331,1.8331,0,0,1.973,1.9655,1.9505,1.9446,1.94,1.927,1.9215,1.9142,1.9031,1.8987,1.8878,1.8769,1.8671,1.861,1.8511,1.843,1.8391,1.8404,1.8412,1.8419,1.8414,1.8365,1.8368,1.8331,1.8331,1.8331,0,0,1.9711,1.9537,1.9492,1.9409,1.931,1.9153,1.912,1.9058,1.8958,1.8951,1.8818,1.8783,1.8696,1.8616,1.8629,1.8493,1.8454,1.8448,1.8548,1.8556,1.8564,1.8584,1.8533,0,0,0,0,0,1.9592,1.956,1.9521,1.9489,1.9293,1.9177,1.915,1.9044,1.9021,1.8997,1.8896,1.8826,1.8596,1.8604,1.8571,1.8557,1.8328,1.8328,1.8329,1.8438,1.8448,1.8456,0,0,0,0,0,0,1.9579,1.9541,1.9521,1.9366,1.932,1.9177,1.9114,1.9084,1.9021,1.901,1.8849,1.8821,1.8724,1.8613,1.8585,1.8574,1.8542,1.8328,1.8328,1.8329,1.8441,1.8449,1.8457,0,0,0,0,0,1.9568,1.9537,1.9252,1.9365,1.9326,1.9177,1.9114,1.9089,1.9037,1.8879,1.885,1.8963,1.8727,1.8695,1.8596,1.859,1.8561,1.8551,1.8328,1.8329,1.8329,1.8445,0,0,0,0,0,0,1.9559,1.951,1.9242,1.9225,1.9369,1.9182,1.915,1.9093,1.8908,1.888,1.8987,1.898,1.8728,1.8704,1.868,1.8602,1.8576,1.8566,1.856,1.8329,1.8329,1.8329,0,0,0,0,0,0,1.9526,1.9497,1.9233,1.9245,1.9229,1.9188,1.9159,1.9057,1.8907,1.9025,1.9014,1.8986,1.8761,1.8709,1.8691,1.8535,1.8588,1.8578,1.8571,1.8567,1.8329,1.8329,0,0,0,0,0,0,1.9512,1.9487,1.9248,1.9236,1.9222,1.9032,1.9095,1.8898,1.8925,1.9035,1.8923,1.8923,1.8768,1.8747,1.8698,1.8552,1.8539,1.8587,1.8581,1.8576,1.8573,0,0,0,0,0,0,0,1.95,1.9692,1.9338,1.9229,1.9217,1.9077,1.9072,1.9067,1.8924,1.8924,1.8923,1.8923,1.8643,1.8632,1.8622,1.8565,0,0,1.8588,1.8584,0,0,0,0,0,0,0,0,1.97,1.9694,1.9338,1.9335,1.9331,1.9076,1.9072,1.9068,1.8924,1.8924,1.8924,1.8923,1.864,1.8632,1.8623,0,0,0,0,0,0,0,0,0,0,0,0,0,0,0,1.9337,1.9335,0,1.9075,1.9072,1.9069,1.8924,1.8924,1.8924,1.8923,1.8638,1.8631,1.8623,0,0,0,0,0,0,0,0,0,0,0,0,0,0,0,0,0,0,0,0,0,0,0,0,0,0,0,0,0,0,0,0,0,0,0,0,0,0,0,0,0,0,0,0,0,0,0,0,0,0,0,0,0,0,0,0,0,0,0,0,0,0,0,0,0,0,0,0,0]}]]]